{"data":{"norad_id":64812,"intl_designator":"2025-150Y","name":"STARLINK-34644","alt_names":[],"object_type":"PAYLOAD","status":"ACTIVE","operator":null,"country":"US","launch_date":"2025-07-16","launch_site_code":"AFWTR","launch_vehicle":null,"mission":null,"orbit_class":"UNKNOWN","rcs_meters":null,"size_class":null,"mass_kg":null,"dimensions":null,"purposes":["comms"],"wikipedia_slug":null,"has_3d_model":false,"image_url":null,"decayed_at":null,"tle_current":{"epoch":"2026-09-20T13:25:49.094400Z","epoch_age_seconds":119161,"freshness":"FRESH","line1":"1 64812U 25150Y   26263.55959600  .00004442  00000+0  37991-3 0  9997","line2":"2 64812  70.0028   3.1804 0003238 269.0182  91.0606 14.98321259 65704","mean_motion":14.98321259,"eccentricity":0.0003238,"inclination_deg":70.0028,"raan_deg":3.1804,"arg_perigee_deg":269.0182,"mean_anomaly_deg":91.0606,"bstar":0.00037991,"rev_number":6570,"period_min":96.107559800698,"perigee_km":569.83244068657,"apogee_km":574.33340310799,"semimajor_km":6950.2199218973,"source":"CELESTRAK","updated_at":"2026-09-21T09:00:35.447173Z"}}}